Upstream stations:
Downstream station:
SHEF ID: BVRO2 Beaver River at Beaver, OK
STATION TYPE:
Regulating: Stage = 9.00, Flow = 2101
PRECIP STAGE RIV-FLOW VOLTAGE BAT-LOAD
in ft cfs volt volt
Ccp-Rev Ccp-Rev Ccp-Rev Ccp-Rev Ccp-Rev
(US/Central)
06/30 00:00 0.00 2.10 0 12.97 12.83
06/30 01:00 0.00 2.10 0 12.95 12.77
06/30 02:00 0.00 2.10 0 12.92 12.77
06/30 03:00 0.00 2.11 0 12.93 12.71
06/30 04:00 0.00 2.11 0 12.92 12.71
06/30 05:00 0.00 2.11 0 12.91 12.71
06/30 06:00 0.00 2.11 0 12.86 12.71
06/30 07:00 0.00 2.11 0 12.88 12.65
06/30 08:00 0.00 2.11 0 13.06 12.65
06/30 09:00 0.00 2.11 0 14.02 12.89
06/30 10:00 0.00 2.11 0 13.92 13.59
06/30 11:00 0.00 2.11 0 13.78 13.59
06/30 12:00 0.00 2.10 0 14.15 13.53
06/30 13:00 0.00 2.10 0 13.50 13.65
06/30 14:00 0.13 2.13 0 13.70 13.36
06/30 15:00 0.00 2.12 0 13.68 13.48
06/30 16:00 0.00 2.13 0 13.53 13.48
06/30 17:00 0.00 2.13 0 13.43 13.36
06/30 18:00 0.00 2.13 0 13.54 13.24
06/30 19:00 0.00 2.13 0 13.46 13.36
06/30 20:00 0.00 2.13 0 13.30 13.30
06/30 21:00 0.00 2.14 0 13.14 13.12
06/30 22:00 0.00 2.14 0 13.04 12.95
06/30 23:00 0.00 2.14 0 12.99 12.89